Location: Newark
(39.0622°N, 106.5590°E)
Time: 15:40:36
(UTC+00:00)

Vanguard 2 Rocket - Pass Details

Date: 28 January 2020
Orbit: 554 x 3326 km, 32.9° (Epoch: 16 February)

Event Time Altitude Azimuth Distance (km) Brightness Sun altitude
Rises 19:10:57 0° 208° (SSW) 2,939 - -55.9°
Reaches altitude 10° 19:15:22 10° 166° (SSE) 1,836 - -55.2°
Maximum altitude 19:16:06 10° 155° (SSE) 1,797 - -55.1°
Drops below altitude 10° 19:16:50 10° 144° (SE) 1,818 - -54.9°
Sets 19:21:03 0° 101° (E) 2,807 - -54.2°
